(216002) = 2005 TL7

Discovered at Catalina on 2005-10-01 by CSS.

Orbit

Orbit type: Main Belt

Note: WebGL enabled browser required.

epoch2023-09-13.0
epoch JD2460200.5
perihelion date2021-01-11.71965
perihelion JD2459226.21965
argument of perihelion (°)25.23439
ascending node (°)220.85128
inclination (°)27.91861
eccentricity0.1869197
perihelion distance (AU)2.5857670
Tisserand w.r.t. Jupiter3.0
ΔV w.r.t. Earth (km/sec)13.2
semimajor axis (AU)3.1802110
mean anomaly (°)169.31829
mean daily motion (°/day)0.17378810
aphelion distance (AU)3.775
period (years)5.67
P-vector [x]-0.43782535
P-vector [y]-0.88368481
P-vector [z]-0.16556000
Q-vector [x]0.84528930
Q-vector [y]-0.46732928
Q-vector [z]0.25901612
absolute magnitude14.54
phase slope0.15
uncertainty0
referenceMPEC 2024-C06
observations used563
oppositions17
arc length (days)11591
first opposition used1992
last opposition used2024
residual rms (arc-secs)0.71
perturbers coarse indicatorM-v
perturbers precise indicator003Ek
first observation date used1992-05-07.0
last observation date used2024-01-31.0
computer nameMPCLINUX
JD of orbit computation2456700.278814
perihelion JD uncertainty (days)1.0638E-04
argument of perihelion uncertainty (°)2.1116E-05
ascending node uncertainty (°)1.1817E-05
inclination uncertainty (°)8.1343E-06
eccentricity uncertainty 6.8271E-08
perihelion distance uncertainty (AU)2.1915E-07
Minimum Orbit Intersection Distances (in AU)
for orbit epoch: 2460200.5, reference: E2024-A74
Mercury2.13587
Venus1.87224
Earth1.5925
Mars1.04801
Jupiter1.26553
Saturn5.39067
Uranus15.621
Neptune26.1246

Observations

582 total observations over interval: 1992 05 07.38795 – 2024 01 31.266561
These data are available for download (format description).

Date (UT) J2000 RA J2000 Dec Magn Location Ref
1992 05 07.38795 15 31 45.86 -10 59 08.3   691 – Steward Observatory, Kitt Peak-Spacewatch MPS 206188
1992 05 07.40474 15 31 45.07 -10 58 53.2   691 – Steward Observatory, Kitt Peak-Spacewatch MPS 206188
1992 05 07.42147 15 31 44.29 -10 58 38.5 18.8 V 691 – Steward Observatory, Kitt Peak-Spacewatch MPS 206188
1998 06 23.24128 17 56 02.93 +10 17 12.4 19.0   704 – Lincoln Laboratory ETS, New Mexico MPS 213738
1998 06 23.25963 17 56 02.12 +10 17 18.6 19.0   704 – Lincoln Laboratory ETS, New Mexico MPS 213738
1998 06 23.27799 17 56 01.19 +10 17 23.9 19.5   704 – Lincoln Laboratory ETS, New Mexico MPS 213738
1998 06 23.29641 17 56 00.19 +10 17 32.4 19.4   704 – Lincoln Laboratory ETS, New Mexico MPS 213738
1998 06 23.31501 17 55 59.27 +10 17 37.3 19.4   704 – Lincoln Laboratory ETS, New Mexico MPS 213738
2003 03 30.26975 12 15 09.36 -25 45 08.7 18.5 R 699 – Lowell Observatory-LONEOS MPS 206188
2003 03 30.28777 12 15 08.61 -25 44 55.7   699 – Lowell Observatory-LONEOS MPS 206188
2003 03 30.30557 12 15 07.79 -25 44 42.7   699 – Lowell Observatory-LONEOS MPS 206188
2003 03 30.32349 12 15 07.07 -25 44 31.6   699 – Lowell Observatory-LONEOS MPS 206188
2003 05 05.31683 11 58 30.50 -17 12 13.5 20.0   608 – Haleakala-AMOS MPS 206188
2003 05 05.32712 11 58 30.44 -17 12 04.1 20.1   608 – Haleakala-AMOS MPS 206188
2003 05 05.33808 11 58 30.31 -17 11 54.9 19.7   608 – Haleakala-AMOS MPS 206188
2005 09 03.46243 01 24 21.24 +25 56 22.2 19.9   644 – Palomar Mountain/NEAT MPS 206188
2005 09 03.46394 01 24 21.15 +25 56 21.6 19.8   644 – Palomar Mountain/NEAT MPS 206188
2005 09 03.47294 01 24 20.94 +25 56 20.3 19.4   644 – Palomar Mountain/NEAT MPS 206188
2005 09 03.47668 01 24 20.89 +25 56 19.4 20.1   644 – Palomar Mountain/NEAT MPS 206188
2005 09 03.48698 01 24 20.66 +25 56 17.6 20.3   644 – Palomar Mountain/NEAT MPS 206188
2005 09 03.48847 01 24 20.62 +25 56 17.3 20.1   644 – Palomar Mountain/NEAT MPS 206188
2005 10 01.33838 01 09 03.27 +23 21 43.5 19.7 V 703 – Catalina Sky Survey MPS 144443
2005 10 01.34757 01 09 02.95 +23 21 38.7 19.6 V 703 – Catalina Sky Survey MPS 144443
2005 10 01.35676 01 09 02.44 +23 21 34.2 19.6 V 703 – Catalina Sky Survey MPS 144443
2005 10 01.36594 01 09 02.12 +23 21 31.2 19.5 V 703 – Catalina Sky Survey MPS 144443
2005 10 02.37372 01 08 20.01 +23 13 17.7 19.6 R 644 – Palomar Mountain/NEAT MPS 144443
2005 10 02.39575 01 08 19.06 +23 13 06.8 19.7 R 644 – Palomar Mountain/NEAT MPS 144443
2005 10 02.41686 01 08 18.13 +23 12 56.2 19.7 R 644 – Palomar Mountain/NEAT MPS 144443
2005 10 23.18491 00 53 56.06 +19 56 08.6 20.7 V 291 – LPL/Spacewatch II MPS 206188
2005 10 23.19408 00 53 55.72 +19 56 03.2 20.0 V 291 – LPL/Spacewatch II MPS 206188
2005 10 23.20328 00 53 55.34 +19 55 57.4 20.0 V 291 – LPL/Spacewatch II MPS 206188
2005 10 29.23846 00 50 16.65 +18 53 25.3 19.0 V 703 – Catalina Sky Survey MPS 206188
2005 10 29.24793 00 50 16.47 +18 53 22.5 19.1 V 703 – Catalina Sky Survey MPS 206188
2005 10 29.25744 00 50 15.97 +18 53 17.5 19.2 V 703 – Catalina Sky Survey MPS 206188
2005 10 29.26707 00 50 15.57 +18 53 11.5 19.6 V 703 – Catalina Sky Survey MPS 206188
2009 03 29.37736 14 58 36.56 -22 12 37.6 19.2   704 – Lincoln Laboratory ETS, New Mexico MPS 282564
2009 03 29.38939 14 58 36.33 -22 12 31.7 19.3   704 – Lincoln Laboratory ETS, New Mexico MPS 282564
2009 03 29.40129 14 58 36.15 -22 12 24.9 18.7   704 – Lincoln Laboratory ETS, New Mexico MPS 282564
2009 03 29.41348 14 58 35.96 -22 12 17.7 19.4   704 – Lincoln Laboratory ETS, New Mexico MPS 282564
2009 03 30.35934 14 58 21.47 -22 03 04.0 18.6   704 – Lincoln Laboratory ETS, New Mexico MPS 282564
2009 03 30.38297 14 58 21.08 -22 02 51.1 19.4   704 – Lincoln Laboratory ETS, New Mexico MPS 282564
2009 03 30.39466 14 58 20.89 -22 02 43.7 18.9   704 – Lincoln Laboratory ETS, New Mexico MPS 282564
2009 03 30.40654 14 58 20.71 -22 02 35.9 19.3   704 – Lincoln Laboratory ETS, New Mexico MPS 282564
2009 04 17.39049 14 50 02.32 -18 30 02.4 18.3 V 703 – Catalina Sky Survey MPS 284370
2009 04 17.39534 14 50 02.14 -18 29 58.6 18.1 V 703 – Catalina Sky Survey MPS 284370
2009 04 17.40014 14 50 01.93 -18 29 55.0 18.3 V 703 – Catalina Sky Survey MPS 284370
2009 04 17.40502 14 50 01.75 -18 29 50.7 18.1 V 703 – Catalina Sky Survey MPS 284370
2009 04 18.36509 14 49 25.53 -18 16 44.5 18.2 V 703 – Catalina Sky Survey MPS 284370
2009 04 18.37133 14 49 25.24 -18 16 39.0 18.2 V 703 – Catalina Sky Survey MPS 284370
2009 04 18.37748 14 49 25.03 -18 16 34.6 18.1 V 703 – Catalina Sky Survey MPS 284370
2009 04 18.38358 14 49 24.78 -18 16 29.0 18.1 V 703 – Catalina Sky Survey MPS 284370
2009 04 23.08681 14 46 17.35 -17 10 20.9 18.0 V J75 – OAM Observatory, La Sagra MPS 284370
2009 04 23.10053 14 46 16.76 -17 10 09.0 17.9 V J75 – OAM Observatory, La Sagra MPS 284370
2009 04 23.11420 14 46 16.17 -17 09 57.5 17.6 V J75 – OAM Observatory, La Sagra MPS 284370
2009 04 24.35246 14 45 24.73 -16 52 03.9 18.2   704 – Lincoln Laboratory ETS, New Mexico MPS 285688
2009 04 24.36317 14 45 24.26 -16 51 54.3 18.7   704 – Lincoln Laboratory ETS, New Mexico MPS 285688
2009 04 24.37401 14 45 23.75 -16 51 45.7 18.6   704 – Lincoln Laboratory ETS, New Mexico MPS 285688
2009 04 24.37434 14 45 23.79 -16 51 45.2 17.9 V G96 – Mt. Lemmon Survey MPS 284370
2009 04 24.38119 14 45 23.50 -16 51 39.2 17.9 V G96 – Mt. Lemmon Survey MPS 284370
2009 04 24.38497 14 45 23.31 -16 51 35.4 18.5   704 – Lincoln Laboratory ETS, New Mexico MPS 285689
2009 04 24.38807 14 45 23.18 -16 51 33.3 17.9 V G96 – Mt. Lemmon Survey MPS 284370
2009 04 24.39496 14 45 22.89 -16 51 27.2 17.9 V G96 – Mt. Lemmon Survey MPS 284370
2009 04 24.39600 14 45 22.86 -16 51 26.3 18.5   704 – Lincoln Laboratory ETS, New Mexico MPS 285689
2009 05 02.05865 14 39 53.52 -14 58 02.7 17.5 V J75 – OAM Observatory, La Sagra MPS 286429
2009 05 02.07219 14 39 52.93 -14 57 50.8 17.4 V J75 – OAM Observatory, La Sagra MPS 286429
2009 05 02.08569 14 39 52.30 -14 57 38.3 17.5 V J75 – OAM Observatory, La Sagra MPS 286429
2009 05 03.30308 14 38 59.50 -14 39 22.4 17.9   704 – Lincoln Laboratory ETS, New Mexico MPS 286429
2009 05 03.32036 14 38 58.64 -14 39 07.4 17.9   704 – Lincoln Laboratory ETS, New Mexico MPS 286429
2009 05 03.33489 14 38 58.02 -14 38 54.0 17.8   704 – Lincoln Laboratory ETS, New Mexico MPS 286429
2009 05 03.35001 14 38 57.31 -14 38 39.9 17.8   704 – Lincoln Laboratory ETS, New Mexico MPS 286429
2009 05 03.36297 14 38 56.78 -14 38 28.7 17.8   704 – Lincoln Laboratory ETS, New Mexico MPS 286429
2009 05 12.62367 14 32 27.52 -12 20 33.5 17.8 V E12 – Siding Spring Survey MPS 286430
2009 05 12.63319 14 32 27.13 -12 20 25.9 17.9 V E12 – Siding Spring Survey MPS 286430
2009 05 12.64268 14 32 26.73 -12 20 17.5 17.9 V E12 – Siding Spring Survey MPS 286430
2009 05 12.65235 14 32 26.37 -12 20 09.4 17.9 V E12 – Siding Spring Survey MPS 286430
2009 05 16.27240 14 30 06.22 -11 28 02.7 18.0 V G96 – Mt. Lemmon Survey MPS 286915
2009 05 16.28002 14 30 05.90 -11 27 56.1 18.0 V G96 – Mt. Lemmon Survey MPS 286915
2009 05 16.28760 14 30 05.61 -11 27 49.6 18.1 V G96 – Mt. Lemmon Survey MPS 286915
2009 05 16.29532 14 30 05.32 -11 27 43.1 18.1 V G96 – Mt. Lemmon Survey MPS 286915
2009 05 17.91160 14 29 05.94 -11 04 55.4 18.0 V J75 – OAM Observatory, La Sagra MPS 286915
2009 05 17.92426 14 29 05.47 -11 04 45.3 18.1 V J75 – OAM Observatory, La Sagra MPS 286915
2009 05 17.93696 14 29 05.02 -11 04 34.5 17.8 V J75 – OAM Observatory, La Sagra MPS 286915
2009 05 18.91447 14 28 30.12 -10 50 58.5 18.0 V J75 – OAM Observatory, La Sagra MPS 286915
2009 05 18.93139 14 28 29.53 -10 50 44.3 17.9 V J75 – OAM Observatory, La Sagra MPS 286915
2009 05 18.94933 14 28 28.85 -10 50 29.4 17.8 V J75 – OAM Observatory, La Sagra MPS 286915
2009 07 23.16070 14 34 32.78 -03 29 54.1 19.7   704 – Lincoln Laboratory ETS, New Mexico MPS 292536
2009 07 23.17181 14 34 33.19 -03 29 54.1 20.1   704 – Lincoln Laboratory ETS, New Mexico MPS 292536
2009 07 23.18257 14 34 33.71 -03 29 55.9 20.2   704 – Lincoln Laboratory ETS, New Mexico MPS 292536
2009 07 23.19331 14 34 34.17 -03 29 53.8 19.8   704 – Lincoln Laboratory ETS, New Mexico MPS 292536
2010 05 27.939149 21 51 56.27 +18 38 27.3   C51 – WISE MPS 330646
